Date,TemperatureHighF,TemperatureAvgF,TemperatureLowF,DewpointHighF,DewpointAvgF,DewpointLowF,HumidityHigh,HumidityAvg,HumidityLow,PressureMaxIn,PressureMinIn,WindSpeedMaxMPH,WindSpeedAvgMPH,GustSpeedMaxMPH,PrecipitationSumIn
2013-1-1,35.2,24.9,16.5,29.6,17.9,9.3,91,75,56,29.95,29.73,24,5,24,0.00
2013-1-2,28.9,17.8,7.0,23.1,11.0,-3.3,93,75,56,30.17,29.87,18,6,18,0.00
2013-1-3,29.7,16.1,5.4,25.5,10.7,-1.4,91,79,68,30.17,29.89,16,3,16,0.00
2013-1-4,38.7,32.3,27.7,27.6,22.8,19.8,86,68,51,29.91,29.80,27,8,27,0.01
2013-1-5,36.5,31.7,25.0,27.2,23.9,20.8,89,73,57,30.20,29.91,21,4,21,0.00
2013-1-6,39.9,35.0,28.9,33.8,29.7,23.8,93,81,65,30.03,29.81,20,4,20,0.01
2013-1-7,35.6,24.8,11.7,33.3,21.1,10.1,96,86,69,30.32,29.95,13,3,13,0.00
2013-1-8,45.5,30.1,10.2,24.4,20.9,8.5,100,70,38,30.26,30.10,11,3,11,0.01
2013-1-9,52.2,33.2,14.4,35.2,24.7,13.2,100,74,50,30.24,29.86,37,5,37,0.00
2013-1-10,44.1,35.5,25.2,29.4,26.5,23.6,97,71,49,30.49,30.18,24,4,24,0.00
2013-1-11,52.2,36.2,24.8,40.1,31.5,23.0,100,84,59,30.41,29.87,19,4,19,0.13
2013-1-12,55.2,41.8,33.1,46.9,39.6,32.8,100,93,68,29.98,29.91,8,1,8,0.00
2013-1-13,62.8,50.0,36.7,54.4,46.8,36.4,100,89,73,29.94,29.71,21,4,21,0.00
2013-1-14,55.0,39.1,30.9,51.9,32.2,20.1,100,77,59,30.29,29.66,22,4,22,0.01
2013-1-15,39.2,30.7,28.2,26.0,23.3,19.9,90,74,52,30.31,30.12,13,2,13,0.00
2013-1-16,37.6,31.7,28.4,30.9,28.0,24.3,100,86,75,30.12,29.70,12,2,12,0.01
2013-1-17,36.3,27.6,18.7,30.2,18.6,9.4,89,69,52,30.10,29.76,19,5,19,0.00
2013-1-18,30.0,20.7,13.6,18.8,11.3,3.9,92,68,36,30.33,30.02,14,4,14,0.01
2013-1-19,50.5,41.1,30.0,30.7,20.9,12.4,73,45,35,30.02,29.55,17,6,17,0.01
2013-1-20,47.3,33.8,20.3,37.1,16.3,4.9,87,49,31,29.98,29.36,42,11,42,0.26
2013-1-21,22.5,19.8,16.2,16.0,9.8,5.2,93,65,49,29.97,29.76,19,4,19,0.00
2013-1-22,20.1,13.0,7.0,12.3,-5.2,-15.9,85,46,25,30.08,29.77,30,8,30,0.00
2013-1-23,20.1,4.2,-9.6,1.4,-10.4,-22.9,77,53,17,30.17,30.06,0,0,0,0.00
2013-1-24,19.6,4.2,-11.4,1.1,-13.2,-27.4,61,44,18,30.38,30.04,17,2,17,0.00
2013-1-25,19.2,10.5,3.6,0.9,-5.8,-12.0,66,49,25,30.38,30.01,8,2,8,0.00
2013-1-26,23.4,6.7,-9.0,7.0,-14.0,-26.7,70,41,10,30.29,30.01,5,1,7,0.00
2013-1-27,33.3,19.3,10.8,10.1,-4.4,-26.6,75,40,10,30.48,30.29,10,2,10,0.00
2013-1-28,32.4,25.9,17.4,32.1,17.5,-1.2,100,73,39,30.34,29.80,10,2,10,0.00
2013-1-29,44.8,36.1,32.4,43.6,35.6,32.1,100,98,88,30.00,29.74,14,1,14,0.39
2013-1-30,62.8,55.8,37.8,54.6,50.1,37.3,99,82,70,29.73,29.00,27,8,27,0.18
2013-1-31,56.5,34.3,23.9,54.1,19.3,0.8,96,56,31,29.59,28.90,47,13,47,0.30